User: anonymous   Login
Location: Unspecified
(0.0000°N, 0.0000°E)
Time: 23:58:35
(UTC+00:00)
Language:

COSMOS-2414 - Orbit

View from above orbital plane
View from above orbital plane
View from above satellite
View from above satellite

Ground track
Ground track

The orbit data is extracted from the following two-line orbital elements,

1 28521U 05002A   21023.82117702  .00000057  00000-0  34625-4 0  9997
2 28521  82.9501  93.5200 0040016 184.5497 175.5311 13.87628533810876
Epoch (UTC): 23 January 2021 19:42:29
Eccentricity: 0.0040016
inclination: 82.9501°
perigee height: 907 km
apogee height: 966 km
right ascension of ascending node: 93.5200°
argument of perigee: 184.5497°
revolutions per day: 13.87628533
mean anomaly at epoch: 175.5311°
orbit number at epoch: 81087

The dashed part of the orbit path shows where the satellite is in the earth's shadow,  

DLR